N255GA OMDB-OTHH

Flight info

Callsign N255GA
Flight time N/A
Altitude 22000
Route NABIX P699 OXARI M430 TOSNA
Aircraft B738/M-SDE2E3FGHIRWXY/LB1

Departure

Time 2026-05-06 13:40
Airport Dubai International Airport (OMDB)

Arrival

Time N/A
Airport Hamad International Airport (OTHH)
Time Latitude Longitude Altitude Speed Heading
2026-05-06 13:29 25.25709 55.37110 21 ft 0 kts 31°
2026-05-06 13:32 25.25689 55.37096 21 ft 4 kts 36°
2026-05-06 13:33 25.25669 55.37077 24 ft 4 kts 49°
2026-05-06 13:33 25.25655 55.37053 23 ft 4 kts 82°
2026-05-06 13:33 25.25656 55.37037 21 ft 0 kts 120°
2026-05-06 13:35 25.25638 55.37071 23 ft 14 kts 121°
2026-05-06 13:35 25.25562 55.37207 21 ft 26 kts 121°
2026-05-06 13:36 25.25452 55.37406 21 ft 33 kts 121°
2026-05-06 13:36 25.25324 55.37636 21 ft 36 kts 121°
2026-05-06 13:36 25.25194 55.37871 21 ft 36 kts 121°
2026-05-06 13:36 25.25061 55.38108 23 ft 36 kts 121°
2026-05-06 13:37 25.24964 55.38248 21 ft 12 kts 169°
2026-05-06 13:37 25.24879 55.38207 21 ft 16 kts 212°
2026-05-06 13:37 25.24769 55.38131 23 ft 17 kts 222°
2026-05-06 13:37 25.24784 55.38057 23 ft 0 kts 301°
2026-05-06 13:38 25.24785 55.38057 23 ft 0 kts 301°
2026-05-06 13:38 25.24790 55.38047 22 ft 5 kts 302°
2026-05-06 13:39 25.24816 55.38002 22 ft 0 kts 301°
2026-05-06 13:40 25.24878 55.37889 21 ft 50 kts 302°
2026-05-06 13:40 25.25238 55.37245 21 ft 143 kts 302°
2026-05-06 13:40 25.25899 55.36150 496 ft 186 kts 305°
2026-05-06 13:40 25.26564 55.34933 1633 ft 192 kts 299°
2026-05-06 13:41 25.27232 55.33624 2730 ft 195 kts 299°
2026-05-06 13:41 25.27951 55.32320 3617 ft 203 kts 300°
2026-05-06 13:41 25.28753 55.30932 4147 ft 226 kts 299°
2026-05-06 13:41 25.29211 55.29220 4603 ft 242 kts 265°
2026-05-06 13:42 25.28778 55.27432 5445 ft 242 kts 244°
2026-05-06 13:42 25.28058 55.25748 6349 ft 245 kts 242°
2026-05-06 13:42 25.27300 55.24041 7149 ft 250 kts 241°
2026-05-06 13:42 25.26536 55.22296 8001 ft 254 kts 242°
2026-05-06 13:43 25.25653 55.20615 8735 ft 263 kts 227°
2026-05-06 13:43 25.24187 55.19305 9114 ft 284 kts 202°
2026-05-06 13:43 25.22196 55.18967 9363 ft 306 kts 168°
2026-05-06 13:43 25.20300 55.20139 9468 ft 333 kts 130°
2026-05-06 13:44 25.19198 55.22515 9148 ft 362 kts 114°
2026-05-06 13:44 25.18354 55.25098 9033 ft 347 kts 105°
2026-05-06 13:44 25.17859 55.27619 9044 ft 328 kts 101°
2026-05-06 13:44 25.17543 55.30095 8502 ft 327 kts 98°
2026-05-06 13:45 25.17327 55.32564 7848 ft 324 kts 96°
2026-05-06 13:45 25.17104 55.37233 6741 ft 311 kts 94°
2026-05-06 13:45 25.17033 55.39631 5904 ft 314 kts 94°
2026-05-06 13:46 25.16708 55.42012 5041 ft 316 kts 101°
2026-05-06 13:46 25.16518 55.44420 4392 ft 312 kts 98°
2026-05-06 13:46 25.16172 55.46788 4013 ft 309 kts 92°
2026-05-06 13:46 25.16628 55.49000 4048 ft 293 kts 60°
2026-05-06 13:47 25.17958 55.50534 3928 ft 264 kts 30°
2026-05-06 13:47 25.19595 55.51033 3764 ft 233 kts 352°
2026-05-06 13:47 25.20903 55.50326 3608 ft 203 kts 305°
2026-05-06 13:47 25.21250 55.48964 3406 ft 180 kts 263°
2026-05-06 13:48 25.21011 55.47552 2554 ft 198 kts 257°
2026-05-06 13:48 25.20889 55.46092 2237 ft 177 kts 277°
2026-05-06 13:48 25.21007 55.44764 1667 ft 171 kts 277°
2026-05-06 13:48 25.21287 55.43518 1092 ft 168 kts 295°
2026-05-06 13:49 25.21860 55.42434 740 ft 158 kts 305°
2026-05-06 13:49 25.22447 55.41501 559 ft 141 kts 304°
2026-05-06 13:49 25.22933 55.40623 292 ft 128 kts 308°
2026-05-06 13:49 25.23393 55.39827 102 ft 120 kts 304°
2026-05-06 13:50 25.23853 55.39013 27 ft 121 kts 300°
2026-05-06 13:50 25.24192 55.38396 21 ft 63 kts 300°
2026-05-06 13:50 25.24323 55.38146 21 ft 14 kts 266°
2026-05-06 13:50 25.24251 55.38078 21 ft 14 kts 211°
2026-05-06 13:51 25.24182 55.38009 22 ft 13 kts 234°
2026-05-06 13:51 25.24117 55.37962 21 ft 10 kts 191°
2026-05-06 13:51 25.24061 55.37923 21 ft 10 kts 220°
2026-05-06 13:51 25.24050 55.37912 23 ft 0 kts 220°